Airfield :
LOGIN :

Register | Disclaimer

   EN    FR    IT 

 










Legend :    VFR   Marginal VFR   IFR   Intensive IFR   Very Intensive IFR
Visi :
Ceiling :
>= 8 km
>= 3000ft
5 to 8 km
1000 to 3000 ft
1500m to 5 km
500 to 1000 ft
800 to 1500m
200 to 500 ft
< 800m
< 200 ft
Symbols :   Thunderstorms  Fog  Heavy snow  Heavy precipitations  Wind > 20 kt
SIGMETs :     Misc.  Thunderstorms  Icing  Turbulence  Mountain Waves  Volcanic Ashes







- Airport Elevation : 142 ft
- IATA code : FLR


LIRQ - Firenze Amerigo Vespucci

CURRENT METAR :
  • 271250Z VRB03KT 9999 FEW060 29/09 Q1018

EXPIRED METARs :
  • 271220Z VRB02KT 9999 FEW060 29/09 Q1018
  • 271150Z 26005KT 190V360 9999 FEW060 28/09 Q1019
  • 271120Z VRB04KT CAVOK 28/09 Q1019
  • 271050Z VRB05KT CAVOK 28/09 Q1019
  • 271020Z 35006KT 260V020 CAVOK 27/08 Q1019

TAF TAF LIRQ
Valid from the 27 at 12:00 until the 28 at 12:00 UTC


271100Z 2712/2812 VRB06KT CAVOK
No reported NOTAMs for that airfield.



MET'MAP, your aeronautical weather chart ! - Copyright ORBIFLY December 2007 - Disclaimer

ORBIFLY MET'MAP TEAM :

Programming & Development : Alexandra Zaïnal
Concept & Development : Baudouin d'Aumeries
Co-Development & Prog : Marc-Olivier Méhu
Technical & hardware support : Manuel Goepfert

Contact : metmap@orbifly.com




SOURCES & CREDITS :

   NOAA